Location: Thompson
(55.7500°N, 97.8670°W)
Time: 17:10:50
(UTC-05:00)

Cosmos 1666 - Visible Passes

Search period start: 23 July 2014 00:00
Search period end: 02 August 2014 00:00
Orbit: 516 x 546 km, 82.5° (Epoch: 22 July)

Date Brightness Start Highest point End Pass type
(mag) Time Alt. Az. Time Alt. Az. Time Alt. Az.
23 Jul 3.4 03:15:24 12° S 03:18:48 50° E 03:22:35 10° NNE visible
24 Jul 3.5 03:05:28 14° SSE 03:08:37 47° E 03:12:22 10° NNE visible
25 Jul 3.5 02:55:30 15° SSE 02:58:26 45° E 03:02:09 10° NNE visible
25 Jul 4.3 04:31:29 10° WSW 04:34:41 24° WNW 04:37:52 10° N visible
26 Jul 3.6 02:45:32 17° SSE 02:48:14 42° E 02:51:55 10° NNE visible
26 Jul 4.2 04:21:13 10° WSW 04:24:27 25° WNW 04:27:42 10° N visible
27 Jul 3.7 02:35:33 18° SSE 02:38:03 40° E 02:41:42 10° NNE visible
27 Jul 4.2 04:10:57 10° WSW 04:14:14 26° WNW 04:17:31 10° N visible
28 Jul 3.7 02:25:33 19° SSE 02:27:51 38° E 02:31:28 10° NNE visible
28 Jul 4.1 04:00:53 11° WSW 04:04:00 27° WNW 04:07:21 10° N visible
29 Jul 3.8 02:15:32 20° SSE 02:17:39 36° E 02:21:14 10° NNE visible
29 Jul 4.1 03:50:52 13° WSW 03:53:47 28° WNW 03:57:10 10° N visible
30 Jul 3.9 02:05:31 21° SE 02:07:27 34° E 02:10:59 10° NNE visible
30 Jul 4.0 03:40:51 14° WSW 03:43:33 29° WNW 03:46:58 10° N visible
31 Jul 3.9 01:55:28 22° SE 01:57:15 33° E 02:00:44 10° NNE visible
31 Jul 4.0 03:30:48 16° WSW 03:33:19 30° WNW 03:36:47 10° N visible
01 Aug 4.0 01:45:25 22° SE 01:47:03 31° E 01:50:29 10° NNE visible
01 Aug 3.9 03:20:45 17° WSW 03:23:05 32° WNW 03:26:35 10° N visible
